CYGFM06 (41889 NORAD) Tracking and Keplerian Element Data

This shows tracking and keplerian element data for the satellite.

Feedback or suggestion? Click here.




ElementValue
Catalog41889
NameCYGFM06
Epoch Orbit8786
Epoch Day198.87643577
Epoch Year2018
RAAN87.0724
Inclination34.959
Eccentricity0.0014979
Argument of Perigee272.5177
Mean Anonmoly87.3819
Mean Motion15.14642836
Decay Rate2.6E-06
L11 41889U 16078F 18198.87643577 .00000260 00000-0 15456-4 0 9999
L22 41889 34.9590 87.0724 0014979 272.5177 87.3819 15.14642836 87866

Live tracking and technical data element details for CYGFM06 (NORAD 41889). CYGFM06 can be tracked NOW for your location showing map with azimuth and elevation plus other details from your city location.

Track the satellite on the map from your city or location and see movement details for azimuth, elevation, latitude, longitude, range, height, and movement on the map or in text.







IsCatalogInMostPopularTable: catalog: 41889, numindb: 83
Update: records affected: 1



GetName: 41889 CYGFM06

Hit Count: updated at: Thu, 19 Jul 2018 03:29:01 GMT